�������l�o���
Date,Time,MP-1(��Sv/h),MP-2(��Sv/h),MP-3(��Sv/h),MP-4(��Sv/h),MP-5(��Sv/h),MP-6(��Sv/h),MP-7(��Sv/h),MP-8(��Sv/h),����,����(m/s),���J
2016/12/01,00:00,1.095,1.842,1.222,2.072,1.432,0.572,1.040,0.965,��,6.5,��
2016/12/01,00:10,1.093,1.839,1.220,2.071,1.434,0.571,1.040,0.963,��쐼,6.1,��
2016/12/01,00:20,1.093,1.843,1.219,2.074,1.432,0.573,1.040,0.963,��,5.8,��
2016/12/01,00:30,1.094,1.841,1.221,2.071,1.434,0.572,1.041,0.963,��,5.7,��
2016/12/01,00:40,1.093,1.843,1.220,2.072,1.436,0.573,1.039,0.966,��,4.8,��
2016/12/01,00:50,1.093,1.842,1.221,2.074,1.435,0.572,1.042,0.965,��쐼,4.7,��
2016/12/01,01:00,1.092,1.844,1.220,2.074,1.432,0.572,1.041,0.963,��쐼,5.2,��
2016/12/01,01:10,1.094,1.843,1.220,2.073,1.433,0.572,1.040,0.964,��쐼,4.8,��
2016/12/01,01:20,1.094,1.845,1.219,2.072,1.433,0.572,1.039,0.964,��쐼,4.7,��
2016/12/01,01:30,1.096,1.840,1.221,2.076,1.434,0.572,1.040,0.965,��쐼,4.6,��
2016/12/01,01:40,1.096,1.842,1.219,2.075,1.434,0.575,1.039,0.966,��쐼,3.9,��
2016/12/01,01:50,1.096,1.842,1.220,2.074,1.434,0.571,1.042,0.965,��쐼,3.8,��
2016/12/01,02:00,1.095,1.843,1.225,2.073,1.434,0.573,1.041,0.964,��쐼,3.2,��
2016/12/01,02:10,1.095,1.842,1.221,2.071,1.432,0.572,1.039,0.964,��쐼,3.1,��
2016/12/01,02:20,1.093,1.844,1.223,2.076,1.433,0.572,1.040,0.966,��쐼,3.0,��
2016/12/01,02:30,1.095,1.842,1.221,2.072,1.437,0.572,1.042,0.965,�쐼,2.3,��
2016/12/01,02:40,1.095,1.841,1.221,2.075,1.431,0.574,1.040,0.965,���쐼,2.0,��
2016/12/01,02:50,1.096,1.842,1.224,2.072,1.433,0.572,1.041,0.965,�쐼,1.7,��
2016/12/01,03:00,1.095,1.839,1.221,2.072,1.436,0.571,1.041,0.965,��,2.5,��
2016/12/01,03:10,1.096,1.846,1.221,2.077,1.434,0.573,1.040,0.966,�쐼,2.3,��
2016/12/01,03:20,1.094,1.843,1.223,2.075,1.434,0.572,1.041,0.966,�쐼,1.5,��
2016/12/01,03:30,1.094,1.842,1.220,2.072,1.434,0.573,1.043,0.963,�쐼,1.2,��
2016/12/01,03:40,1.095,1.843,1.221,2.074,1.435,0.572,1.041,0.966,��쐼,1.2,��
2016/12/01,03:50,1.096,1.845,1.220,2.076,1.429,0.574,1.043,0.965,��쐼,1.7,��
2016/12/01,04:00,1.095,1.842,1.223,2.077,1.438,0.574,1.042,0.964,��쓌,1.2,�L
2016/12/01,04:10,1.096,1.844,1.221,2.073,1.435,0.573,1.042,0.966,��쐼,0.9,��
2016/12/01,04:20,1.095,1.840,1.221,2.077,1.434,0.575,1.042,0.966,���쐼,0.6,��
2016/12/01,04:30,1.097,1.841,1.220,2.076,1.434,0.573,1.043,0.964,��쐼,0.6,��
2016/12/01,04:40,1.095,1.840,1.222,2.074,1.434,0.575,1.043,0.964,��쓌,0.9,��
2016/12/01,04:50,1.097,1.842,1.221,2.074,1.433,0.575,1.043,0.965,��,0.9,��
2016/12/01,05:00,1.095,1.839,1.222,2.071,1.434,0.573,1.043,0.965,��,2.0,��
2016/12/01,05:10,1.097,1.841,1.223,2.076,1.435,0.573,1.044,0.965,��쓌,1.2,��
2016/12/01,05:20,1.097,1.842,1.223,2.072,1.434,0.572,1.043,0.964,��쓌,0.8,�L
2016/12/01,05:30,1.094,1.837,1.224,2.070,1.432,0.572,1.044,0.965,�쓌,1.5,�L
2016/12/01,05:40,1.095,1.836,1.219,2.070,1.431,0.575,1.043,0.963,��,1.5,�L
2016/12/01,05:50,1.091,1.828,1.218,2.065,1.423,0.574,1.040,0.964,-,CALM,�L
2016/12/01,06:00,1.086,1.810,1.211,2.057,1.414,0.573,1.035,0.959,-,CALM,�L
2016/12/01,06:10,1.082,1.806,1.206,2.053,1.406,0.572,1.035,0.959,-,CALM,�L
2016/12/01,06:20,1.078,1.792,1.198,2.040,1.395,0.570,1.028,0.955,�k��,1.5,�L
2016/12/01,06:30,1.074,1.785,1.198,2.029,1.392,0.572,1.028,0.955,�k,1.7,�L
2016/12/01,06:40,1.072,1.783,1.196,2.027,1.393,0.571,1.025,0.955,��,1.5,�L
2016/12/01,06:50,1.072,1.787,1.195,2.026,1.391,0.570,1.025,0.955,��,1.7,�L
2016/12/01,07:00,1.070,1.784,1.195,2.024,1.388,0.572,1.026,0.956,�k��,1.5,�L
2016/12/01,07:10,1.072,1.786,1.194,2.021,1.390,0.569,1.027,0.954,�k,1.2,�L
2016/12/01,07:20,1.069,1.784,1.193,2.021,1.389,0.571,1.025,0.955,�k,1.2,�L
2016/12/01,07:30,1.072,1.787,1.192,2.020,1.386,0.568,1.027,0.953,�k�k��,1.7,�L
2016/12/01,07:40,1.071,1.786,1.194,2.021,1.391,0.567,1.025,0.954,�k�k��,2.2,��
2016/12/01,07:50,1.070,1.790,1.195,2.018,1.392,0.569,1.024,0.954,�k�k��,2.5,�L
2016/12/01,08:00,1.071,1.789,1.183,2.021,1.388,0.569,1.025,0.955,�k��,1.9,�L
2016/12/01,08:10,1.069,1.781,1.185,2.013,1.384,0.570,1.026,0.954,�k��,2.0,�L
2016/12/01,08:20,1.068,1.774,1.189,2.012,1.383,0.567,1.026,0.951,�k�k��,2.3,�L
2016/12/01,08:30,1.067,1.773,1.188,2.010,1.379,0.569,1.025,0.952,�k�k��,2.8,�L
2016/12/01,08:40,1.068,1.774,1.186,2.006,1.381,0.568,1.022,0.953,�k,2.6,�L
2016/12/01,08:50,1.066,1.775,1.184,2.008,1.380,0.569,1.021,0.951,�k�k��,2.8,�L
2016/12/01,09:00,1.068,1.777,1.185,2.007,1.381,0.569,1.021,0.953,�k�k��,2.0,�L
2016/12/01,09:10,1.067,1.773,1.188,2.004,1.381,0.569,1.022,0.951,�k,1.2,�L
2016/12/01,09:20,1.063,1.766,1.183,2.001,1.375,0.568,1.022,0.950,�k�k��,2.3,�L
2016/12/01,09:30,1.064,1.767,1.183,2.001,1.377,0.568,1.021,0.951,�k��,4.0,�L
2016/12/01,09:40,1.064,1.771,1.187,2.000,1.377,0.567,1.021,0.951,�k��,5.0,�L
2016/12/01,09:50,1.063,1.770,1.187,2.001,1.375,0.568,1.022,0.951,�k�k��,4.4,�L
2016/12/01,10:00,1.064,1.769,1.189,2.001,1.380,0.568,1.021,0.951,�k�k��,4.3,�L
2016/12/01,10:10,1.066,1.773,1.188,2.001,1.378,0.567,1.023,0.951,�k�k��,3.4,�L
2016/12/01,10:20,1.064,1.766,1.184,1.998,1.373,0.566,1.021,0.949,�k�k��,2.0,�L
2016/12/01,10:30,1.064,1.766,1.186,1.996,1.372,0.567,1.020,0.949,�k�k��,3.2,�L
2016/12/01,10:40,1.064,1.773,1.184,1.998,1.375,0.566,1.020,0.950,�k�k��,3.6,��
2016/12/01,10:50,1.064,1.773,1.185,1.998,1.376,0.566,1.020,0.947,�k��,4.1,�L
2016/12/01,11:00,1.063,1.770,1.187,1.997,1.371,0.564,1.019,0.948,�k��,2.3,�L
2016/12/01,11:10,1.059,1.764,1.183,1.991,1.362,0.566,1.016,0.947,�k�k��,2.0,�L
2016/12/01,11:20,1.058,1.752,1.178,1.984,1.362,0.563,1.016,0.946,�k�k��,1.5,�L
2016/12/01,11:30,1.054,1.757,1.182,1.984,1.360,0.563,1.016,0.944,�k,1.5,�L
2016/12/01,11:40,1.059,1.758,1.179,1.984,1.356,0.562,1.014,0.946,��쓌,2.3,�L
2016/12/01,11:50,1.053,1.747,1.182,1.980,1.353,0.564,1.015,0.946,�k�k��,0.9,�L
2016/12/01,12:00,1.055,1.755,1.185,1.986,1.358,0.565,1.015,0.946,�k��,1.2,��
2016/12/01,12:10,1.057,1.763,1.184,1.993,1.362,0.565,1.018,0.948,��,2.0,��
2016/12/01,12:20,1.060,1.767,1.186,1.994,1.363,0.568,1.018,0.948,���쓌,3.6,��
2016/12/01,12:30,1.062,1.767,1.188,1.995,1.368,0.565,1.016,0.947,-,CALM,��
2016/12/01,12:40,1.061,1.771,1.188,1.997,1.371,0.566,1.016,0.950,�k��,1.1,�L
2016/12/01,12:50,1.062,1.761,1.184,1.999,1.365,0.566,1.018,0.948,�k�k��,3.0,�L
2016/12/01,13:00,1.066,1.766,1.185,1.996,1.367,0.565,1.018,0.949,-,CALM,��
2016/12/01,13:10,1.065,1.770,1.186,2.000,1.371,0.566,1.019,0.949,�k��,1.1,��
2016/12/01,13:20,1.063,1.771,1.187,1.999,1.369,0.564,1.019,0.949,�k,1.4,��
2016/12/01,13:30,1.064,1.771,1.188,2.001,1.369,0.566,1.019,0.949,�k�k��,1.5,��
2016/12/01,13:40,1.064,1.772,1.189,2.002,1.370,0.567,1.019,0.950,�k�k��,1.7,��
2016/12/01,13:50,1.066,1.772,1.187,2.003,1.370,0.565,1.020,0.951,�k,2.0,��
2016/12/01,14:00,1.066,1.774,1.187,2.001,1.371,0.566,1.021,0.949,�k,2.3,��
2016/12/01,14:10,1.063,1.776,1.190,2.005,1.373,0.566,1.021,0.949,�k,2.5,��
2016/12/01,14:20,1.070,1.776,1.190,2.005,1.375,0.564,1.021,0.950,�k,2.9,��
2016/12/01,14:30,1.065,1.779,1.190,2.005,1.375,0.564,1.020,0.949,�k�k��,2.0,��
2016/12/01,14:40,1.068,1.779,1.191,2.007,1.374,0.566,1.022,0.950,�k,2.0,��
2016/12/01,14:50,1.069,1.780,1.190,2.007,1.373,0.565,1.024,0.951,�k,2.2,��
2016/12/01,15:00,1.069,1.779,1.191,2.007,1.377,0.563,1.023,0.953,�k�k��,2.8,��
2016/12/01,15:10,1.071,1.781,1.191,2.008,1.378,0.567,1.025,0.951,�k�k��,3.3,��
2016/12/01,15:20,1.070,1.784,1.194,2.009,1.378,0.565,1.023,0.953,�k��,4.2,��
2016/12/01,15:30,1.069,1.786,1.191,2.012,1.377,0.566,1.023,0.951,�k��,3.2,��
2016/12/01,15:40,1.068,1.787,1.192,2.008,1.377,0.565,1.023,0.952,�k��,4.4,��
2016/12/01,15:50,1.071,1.784,1.192,2.012,1.378,0.568,1.024,0.954,�k��,4.8,�L
2016/12/01,16:00,1.071,1.790,1.193,2.012,1.379,0.566,1.023,0.952,�k��,5.2,�L
2016/12/01,16:10,1.070,1.785,1.193,2.011,1.381,0.566,1.024,0.952,���k��,6.2,��
2016/12/01,16:20,1.069,1.786,1.194,2.011,1.378,0.566,1.024,0.952,���k��,3.1,��
2016/12/01,16:30,1.071,1.785,1.192,2.014,1.380,0.566,1.025,0.951,���k��,3.8,��
2016/12/01,16:40,1.070,1.784,1.193,2.013,1.381,0.567,1.025,0.953,���k��,7.7,��
2016/12/01,16:50,1.071,1.784,1.194,2.011,1.382,0.567,1.026,0.950,���k��,7.7,��
2016/12/01,17:00,1.071,1.786,1.195,2.014,1.380,0.566,1.025,0.952,���k��,7.5,��
2016/12/01,17:10,1.075,1.787,1.196,2.013,1.380,0.567,1.025,0.953,���k��,8.0,��
2016/12/01,17:20,1.075,1.787,1.196,2.016,1.381,0.568,1.025,0.951,���k��,8.6,��
2016/12/01,17:30,1.073,1.788,1.195,2.015,1.381,0.567,1.025,0.951,�k��,5.5,��
2016/12/01,17:40,1.073,1.789,1.197,2.015,1.380,0.567,1.026,0.950,���k��,2.2,��
2016/12/01,17:50,1.076,1.787,1.194,2.015,1.383,0.565,1.026,0.953,��,2.3,��
2016/12/01,18:00,1.072,1.790,1.195,2.017,1.384,0.569,1.028,0.952,�쐼,3.0,��
2016/12/01,18:10,1.074,1.789,1.197,2.015,1.383,0.567,1.024,0.952,-,-,��
2016/12/01,18:20,1.075,1.788,1.199,2.019,1.381,0.569,1.024,0.953,-,-,-
2016/12/01,18:30,1.075,1.790,1.198,2.014,1.379,0.567,1.027,0.954,-,-,-
2016/12/01,18:40,1.074,1.792,1.196,2.018,1.383,0.569,1.030,0.952,-,-,-
2016/12/01,18:50,1.075,1.788,1.197,2.016,1.383,0.569,1.026,0.954,-,-,-
2016/12/01,19:00,1.075,1.790,1.197,2.017,1.383,0.566,1.026,0.954,-,-,-
2016/12/01,19:10,1.074,1.790,1.198,2.019,1.380,0.569,1.026,0.954,-,-,-
2016/12/01,19:20,1.074,1.795,1.199,2.018,1.384,0.570,1.028,0.955,��,6.5,��
2016/12/01,19:30,1.074,1.793,1.197,2.019,1.384,0.569,1.028,0.955,��,9.8,��
2016/12/01,19:40,1.075,1.792,1.199,2.022,1.385,0.569,1.027,0.956,��,9.3,��
2016/12/01,19:50,1.075,1.794,1.197,2.021,1.386,0.569,1.031,0.955,��,9.1,��
2016/12/01,20:00,1.076,1.792,1.199,2.023,1.386,0.569,1.026,0.956,��,8.1,��
2016/12/01,20:10,1.078,1.794,1.202,2.026,1.385,0.568,1.028,0.956,��,8.0,��
2016/12/01,20:20,1.077,1.794,1.203,2.025,1.386,0.569,1.028,0.957,��,10.9,��
2016/12/01,20:30,1.079,1.795,1.201,2.027,1.386,0.569,1.030,0.958,���k��,12.0,��
2016/12/01,20:40,1.079,1.796,1.203,2.027,1.387,0.569,1.031,0.957,��,10.9,��
2016/12/01,20:50,1.076,1.796,1.201,2.028,1.388,0.572,1.029,0.957,��,11.7,��
2016/12/01,21:00,1.079,1.797,1.204,2.027,1.391,0.570,1.031,0.957,��,10.0,��
2016/12/01,21:10,1.077,1.797,1.203,2.030,1.393,0.571,1.031,0.960,���k��,11.6,��
2016/12/01,21:20,1.078,1.799,1.203,2.032,1.389,0.570,1.028,0.958,��,10.2,��
2016/12/01,21:30,1.080,1.798,1.204,2.032,1.389,0.572,1.029,0.958,���k��,11.9,��
2016/12/01,21:40,1.079,1.798,1.206,2.031,1.390,0.572,1.031,0.959,��,11.8,��
2016/12/01,21:50,1.078,1.798,1.205,2.031,1.391,0.571,1.031,0.959,��,12.0,��
2016/12/01,22:00,1.078,1.798,1.204,2.033,1.392,0.572,1.031,0.958,��,14.1,��
2016/12/01,22:10,1.080,1.801,1.205,2.032,1.395,0.573,1.030,0.958,��,11.8,��
2016/12/01,22:20,1.078,1.801,1.203,2.033,1.391,0.572,1.030,0.957,���k��,15.5,��
2016/12/01,22:30,1.079,1.802,1.204,2.032,1.393,0.571,1.031,0.959,��,13.3,��
2016/12/01,22:40,1.078,1.802,1.206,2.035,1.394,0.573,1.031,0.957,��,11.4,��
2016/12/01,22:50,1.080,1.802,1.206,2.035,1.392,0.573,1.029,0.959,��,11.3,��
2016/12/01,23:00,1.081,1.800,1.207,2.036,1.392,0.572,1.032,0.959,��,13.0,��
2016/12/01,23:10,1.079,1.802,1.206,2.038,1.393,0.574,1.033,0.958,��,13.5,��
2016/12/01,23:20,1.081,1.801,1.206,2.035,1.395,0.572,1.031,0.960,��,12.4,��
2016/12/01,23:30,1.080,1.801,1.206,2.038,1.396,0.571,1.032,0.958,��,12.1,��
2016/12/01,23:40,1.079,1.805,1.207,2.037,1.397,0.573,1.033,0.959,���k��,11.6,��
2016/12/01,23:50,1.079,1.804,1.207,2.039,1.398,0.572,1.032,0.960,��,13.5,��
